Weather History for KVBG - July, 2013

Change the Weather History Date:

Wednesday, July 24, 2013

  Actual Average Record
Temperature  
Mean Temperature 60 °F -  
Max Temperature 66 °F 64 °F 74 °F (2015)
Min Temperature 53 °F 53 °F 50 °F (2015)
Degree Days  
Heating Degree Days 6    
Growing Degree Days 10 (Base 50)    
Moisture  
Dew Point 55 °F    
Average Humidity 92    
Maximum Humidity 100    
Minimum Humidity 65    
Precipitation  
Precipitation 0.00 in - - ()
Sea Level Pressure  
Sea Level Pressure 29.98 in    
Wind  
Wind Speed 5 mph (NW)    
Max Wind Speed 12 mph    
Max Gust Speed 17 mph    
Visibility 2 miles    
Events Fog    
Averages and records for this station are not official NWS values.
T = Trace of Precipitation, MM = Missing Value Source: NWS Daily Summary

Daily Weather History Graph

Daily Weather History Graph

Search for Another Location

Airport or City:

Trip Planner

Search our weather history database for the weather conditions in past years. The results will help you decide how hot, cold, wet, or windy it might be!

Date:

Astronomy

Jul. 24, 2013 Rise Set
Actual Time 6:06 AM PDT 8:10 PM PDT
Civil Twilight 5:38 AM PDT 8:38 PM PDT
Nautical Twilight 5:04 AM PDT 9:13 PM PDT
Astronomical Twilight 4:27 AM PDT 9:49 PM PDT
Moon 9:29 PM PDT (7/24) 8:24 AM PDT (7/24)
Length of Visible Light 15h 00m
Length of Day
14h 03m
Waning Gibbous, 94% of the Moon is Illuminated
Jul 24
Waning Gibbous
Jul 29
Last Quarter
Aug 6
New
Aug 14
First Quarter
Aug 20
Full

Hourly Weather History & Observations

Time (PDT) Temp. Dew Point Humidity Pressure Visibility Wind Dir Wind Speed Gust Speed Precip Events Conditions
12:08 AM 57.2 °F 55.4 °F 94% 30.00 in 0.8 mi Calm Calm - N/A   Mist
12:32 AM 57.2 °F 55.4 °F 94% 30.00 in 1.2 mi Calm Calm - N/A   Overcast
12:39 AM 57.2 °F 55.4 °F 94% 30.00 in 1.8 mi Calm Calm - N/A   Overcast
12:44 AM 57.2 °F 55.4 °F 94% 30.00 in 1.2 mi North 3.5 mph - N/A   Overcast
1:00 AM 57.2 °F 55.4 °F 94% 30.00 in 3.0 mi North 5.8 mph - N/A   Overcast
1:05 AM 57.2 °F 55.4 °F 94% 30.00 in 2.0 mi North 4.6 mph - N/A   Overcast
1:20 AM 57.2 °F 55.4 °F 94% 30.00 in 1.5 mi NNW 5.8 mph - N/A   Overcast
1:30 AM 57.2 °F 55.4 °F 94% 30.00 in 1.2 mi NNW 5.8 mph - N/A   Overcast
1:33 AM 57.2 °F 55.4 °F 94% 30.00 in 0.8 mi NNW 5.8 mph - N/A   Mist
1:42 AM 57.2 °F 55.4 °F 94% 30.00 in 0.5 mi NW 3.5 mph - N/A Fog Fog
1:55 AM 55.9 °F 55.0 °F 97% 29.97 in 0.5 mi WNW 3.5 mph - N/A Fog Fog
2:28 AM 55.4 °F 53.6 °F 94% 29.99 in 0.2 mi WNW 3.5 mph - N/A Fog Fog
2:55 AM 55.0 °F 54.0 °F 96% 29.96 in 0.2 mi WNW 3.5 mph - N/A Fog Fog
3:05 AM 55.4 °F 53.6 °F 94% 29.99 in 0.5 mi Calm Calm - N/A Fog Fog
3:21 AM 55.4 °F 53.6 °F 94% 29.99 in 0.2 mi Calm Calm - N/A Fog Fog
3:38 AM 53.6 °F 53.6 °F 100% 29.99 in 0.5 mi WNW 3.5 mph - N/A Fog Fog
3:47 AM 53.6 °F 53.6 °F 100% 29.99 in 0.2 mi Calm Calm - N/A Fog Fog
3:55 AM 54.0 °F 54.0 °F 100% 29.96 in 0.2 mi Calm Calm - N/A Fog Fog
4:03 AM 55.4 °F 53.6 °F 94% 29.99 in 0.5 mi Calm Calm - N/A Fog Fog
4:16 AM 53.6 °F 53.6 °F 100% 29.99 in 1.0 mi Calm Calm - N/A   Mist
4:26 AM 53.6 °F 53.6 °F 100% 29.99 in 0.5 mi Calm Calm - N/A Fog Fog
4:55 AM 55.0 °F 54.0 °F 96% 29.96 in 0.5 mi Calm Calm - N/A Fog Fog
5:16 AM 55.4 °F 53.6 °F 94% 29.99 in 0.2 mi Calm Calm - N/A Fog Fog
5:55 AM 55.0 °F 54.0 °F 96% 29.97 in 0.2 mi WNW 5.8 mph - N/A Fog Fog
6:55 AM 55.0 °F 53.1 °F 93% 29.98 in 0.2 mi NW 5.8 mph - N/A Fog Fog
7:55 AM 55.0 °F 55.0 °F 100% 29.99 in 0.2 mi NNW 4.6 mph - N/A Fog Fog
8:11 AM 55.4 °F 55.4 °F 100% 30.01 in 0.5 mi NNW 5.8 mph - N/A Fog Fog
8:28 AM 55.4 °F 55.4 °F 100% 30.02 in 0.8 mi NW 4.6 mph - N/A   Overcast
8:42 AM 55.4 °F 55.4 °F 100% 30.02 in 1.2 mi NNW 3.5 mph - N/A   Overcast
8:55 AM 55.9 °F 55.0 °F 97% 29.99 in 2.0 mi NW 3.5 mph - N/A   Overcast
9:06 AM 57.2 °F 55.4 °F 94% 30.02 in 3.0 mi NW 5.8 mph - N/A   Overcast
9:24 AM 57.2 °F 55.4 °F 94% 30.01 in 3.0 mi NNW 6.9 mph - N/A   Overcast
9:55 AM 61.0 °F 55.0 °F 81% 29.99 in 5.0 mi NW 5.8 mph - N/A   Mostly Cloudy
10:29 AM 62.6 °F 53.6 °F 72% 30.02 in 10.0 mi NW 8.1 mph - N/A   Mostly Cloudy
10:55 AM 64.0 °F 54.0 °F 70% 29.99 in 10.0 mi NNW 6.9 mph - N/A   Mostly Cloudy
11:55 AM 66.0 °F 54.0 °F 65% 29.99 in 10.0 mi NW 9.2 mph - N/A   Mostly Cloudy
12:55 PM 66.0 °F 54.0 °F 65% 29.99 in 10.0 mi WNW 11.5 mph - N/A   Mostly Cloudy
1:55 PM 64.9 °F 55.0 °F 70% 29.98 in 10.0 mi NW 10.4 mph - N/A   Mostly Cloudy
2:51 PM 64.4 °F 55.4 °F 73% 30.00 in 10.0 mi WNW 10.4 mph 17.3 mph N/A   Mostly Cloudy
2:55 PM 64.9 °F 55.0 °F 70% 29.97 in 10.0 mi NW 9.2 mph - N/A   Mostly Cloudy
3:55 PM 62.1 °F 55.0 °F 78% 29.96 in 10.0 mi NW 9.2 mph - N/A   Mostly Cloudy
4:55 PM 61.0 °F 55.0 °F 81% 29.95 in 10.0 mi NW 9.2 mph - N/A   Overcast
5:55 PM 60.1 °F 55.0 °F 83% 29.94 in 10.0 mi WNW 9.2 mph - N/A   Overcast
6:55 PM 57.9 °F 55.0 °F 90% 29.94 in 7.0 mi NNW 11.5 mph - N/A   Overcast
7:19 PM 57.2 °F 55.4 °F 94% 29.97 in 2.0 mi NNW 11.5 mph - N/A   Overcast
7:21 PM 57.2 °F 55.4 °F 94% 29.97 in 1.5 mi NNW 10.4 mph - N/A   Overcast
7:24 PM 57.2 °F 55.4 °F 94% 29.97 in 1.0 mi NNW 9.2 mph - N/A   Overcast
7:36 PM 57.2 °F 55.4 °F 94% 29.97 in 1.5 mi NNW 8.1 mph - N/A   Overcast
7:41 PM 57.2 °F 55.4 °F 94% 29.97 in 1.0 mi NW 9.2 mph - N/A   Overcast
7:46 PM 57.2 °F 55.4 °F 94% 29.97 in 0.5 mi NW 9.2 mph - N/A Fog Fog
7:55 PM 57.0 °F 55.0 °F 93% 29.95 in 0.2 mi NW 10.4 mph - N/A Fog Fog
8:15 PM 57.2 °F 55.4 °F 94% 29.98 in 0.8 mi NW 9.2 mph - N/A   Mist
8:18 PM 57.2 °F 55.4 °F 94% 29.98 in 1.2 mi NNW 10.4 mph - N/A   Overcast
8:20 PM 57.2 °F 55.4 °F 94% 29.98 in 0.8 mi NNW 9.2 mph - N/A   Mist
8:27 PM 57.2 °F 55.4 °F 94% 29.98 in 0.5 mi NW 11.5 mph - N/A Fog Fog
8:38 PM 57.2 °F 55.4 °F 94% 29.98 in 0.2 mi NW 10.4 mph - N/A Fog Fog
8:42 PM 57.2 °F 55.4 °F 94% 29.98 in 0.5 mi NW 11.5 mph - N/A Fog Fog
8:55 PM 55.9 °F 55.0 °F 97% 29.96 in 1.2 mi NNW 9.2 mph - N/A   Overcast
9:00 PM 57.2 °F 55.4 °F 94% 29.98 in 0.8 mi NNW 9.2 mph - N/A   Mist
9:26 PM 57.2 °F 55.4 °F 94% 29.99 in 0.5 mi NNW 11.5 mph - N/A Fog Fog
9:38 PM 57.2 °F 55.4 °F 94% 29.99 in 0.8 mi NW 8.1 mph - N/A   Mist
9:55 PM 55.9 °F 55.0 °F 97% 29.97 in 0.8 mi NNW 10.4 mph - N/A   Mist
10:12 PM 55.4 °F 55.4 °F 100% 30.00 in 0.5 mi NNW 9.2 mph - N/A Fog Fog
10:22 PM 55.4 °F 55.4 °F 100% 30.00 in 1.0 mi NNW 9.2 mph - N/A   Mist
10:30 PM 55.4 °F 55.4 °F 100% 30.00 in 0.5 mi NNW 10.4 mph - N/A Fog Fog
10:55 PM 55.9 °F 55.0 °F 97% 29.97 in 0.5 mi NW 10.4 mph - N/A Fog Fog
11:55 PM 55.9 °F 55.0 °F 97% 29.96 in 0.5 mi NNW 9.2 mph - N/A Fog Fog